Skip Page Navigation
NASA JPL Caltech
NASA Logo - Jet Propulsion Laboratory + View the NASA Portal
+ Near-Earth Object (NEO) Program
Search JPL
JPL Home Earth Solar System Stars & Galaxies Technology
JPL Solar System Dynamics
BODIES ORBITS EPHEMERIDES TOOLS PHYSICAL DATA DISCOVERY FAQ SITE MAP
JPL Small-Body Database Browser
Search: [ help ]  
7294 (1992 LM)
Classification: Main-belt Asteroid          SPK-ID: 2007294
Ephemeris | Orbit Diagram | Orbital Elements | Physical Parameters | Discovery Circumstances ]

[ show orbit diagram ]
Orbital Elements at Epoch 2456800.5 (2014-May-23.0) TDB
Reference: JPL 2 (heliocentric ecliptic J2000)
 Element Value Uncertainty (1-sigma)   Units 
e .09004524975776684 6.7715e-08  
a 2.65982356327732 2.4232e-08 AU
q 2.42031908621042 1.831e-07 AU
i 6.70904504537216 7.0769e-06 deg
node 74.15954002132885 6.4216e-05 deg
peri 72.55265621378864 7.8374e-05 deg
M 109.1184640653087 4.318e-05 deg
tp 2456320.243320258048
(2013-Jan-27.74332026)
0.00019018 JED
period 1584.446832056073
4.34
2.1652e-05
5.928e-08
d
yr
n .2272086337746294 3.1049e-09 deg/d
Q 2.899328040344219 2.6414e-08 AU
  Orbit Determination Parameters
   # obs. used (total)      952  
   data-arc span      8693 days (23.80 yr)  
   first obs. used      1989-09-02  
   last obs. used      2013-06-21  
   planetary ephem.      DE431  
   SB-pert. ephem.      SB431-BIG16  
   condition code      0  
   fit RMS      .52236  
   data source      ORB  
   producer      Otto Matic  
   solution date      2013-Aug-05 15:40:34  

Additional Information
 Earth MOID = 1.44287 AU 
 T_jup = 3.371 
[ show covariance matrix ]

Ephemeris | Orbit Diagram | Orbital Elements | Physical Parameters | Discovery Circumstances ]

Physical Parameter Table
Parameter Symbol Value Units Sigma Reference Notes
absolute magnitude H 12.8 mag n/a PDS3 (MPC 28287)  

7294 (1992 LM)          Discovered 1992-Jun-03 by Leonard, G. J. at Palomar (675)
Reference: DISCOVERY.DBLast Updated: 2003-08-29
Ephemeris | Orbit Diagram | Orbital Elements | Physical Parameters | Discovery Circumstances ]
ABOUT SSD CREDITS/AWARDS PRIVACY/COPYRIGHT GLOSSARY LINKS
FirstGov 2014-Apr-19 11:59 UT
(server date/time)  
NASA Home Page
Site Manager:   Donald K. Yeomans
Webmaster  Alan B. Chamberlin